EA1AML-1 Vega de Espinareda ES current weather conditions

sailwx.info

Wind from 190

Air temperature 8.9° C
Dewpoint 8.7° C

Last reported at 2014-Oct-02 04:49 UTC.
Time now 2014-Oct-02 06:37 UTC

Location: N 42°43' W 006°39'.
View on Google Maps.

See reports from other nearby stations

  
Tides and Currents Weather Stations Pressure Air Temp Water Temp Dewpoint Dewpoint Depression Visibility Wind Speed Wind Dir Waves Ship Positions
date/time (UTC)wind fromknots sea level pressurealtimeterstation pressurevisibilityair tempwater tempwave heightnotes
2014-Oct-02 04:49 190 8.9
2014-Oct-02 04:43 186 0 gusting 3 8.9
2014-Oct-02 04:37 183 8.3
2014-Oct-02 04:19 223 8.9
2014-Oct-02 04:13 185 8.9
2014-Oct-02 04:07 184 0 gusting 2 9.4
2014-Oct-02 03:55 186 0 gusting 4 9.4
2014-Oct-02 03:43 157 0 gusting 1 8.9
2014-Oct-02 03:37 179 9.4
2014-Oct-02 03:31 198 9.4
2014-Oct-02 03:25 181 0 gusting 2 8.9
2014-Oct-02 03:13 218 8.9
2014-Oct-02 03:01 274 9.4
2014-Oct-02 02:55 210 9.4
2014-Oct-02 02:49 147 9.4
2014-Oct-02 02:43 172 9.4
2014-Oct-02 02:31 177 10.0
2014-Oct-02 02:25 190 10.0
2014-Oct-02 02:19 135 10.0
2014-Oct-02 02:13 211 10.0
2014-Oct-02 02:01 211 10.0
2014-Oct-02 01:55 314 10.6
2014-Oct-02 01:37 191 0 gusting 2 10.6
2014-Oct-02 01:31 212 10.6
2014-Oct-02 01:25 229 10.6
2014-Oct-02 01:19 200 10.6
2014-Oct-02 01:01 198 0 gusting 4 11.1
2014-Oct-02 00:55 189 2 gusting 4 11.1
2014-Oct-02 00:43 194 0 gusting 2 11.1
2014-Oct-02 00:31 210 11.7
2014-Oct-02 00:25 196 11.7
2014-Oct-01 23:55 184 1 gusting 4 11.7
2014-Oct-01 23:43 192 0 gusting 4 12.2
2014-Oct-01 23:31 192 0 gusting 2 12.2
2014-Oct-01 23:13 223 0 gusting 3 12.2
2014-Oct-01 23:01 173 2 gusting 4 12.8
2014-Oct-01 22:55 208 0 gusting 4 12.8
2014-Oct-01 22:31 191 4 gusting 6 13.9
2014-Oct-01 22:25 220 1 gusting 2 14.4
2014-Oct-01 22:07 212 15.0
2014-Oct-01 22:01 195 15.0
2014-Oct-01 21:55 217 15.0
2014-Oct-01 21:37 199 15.6
2014-Oct-01 21:01 228 0 gusting 3 16.7
2014-Oct-01 20:55 244 16.7
2014-Oct-01 20:07 221 17.8
2014-Oct-01 19:55 248 0 gusting 2 17.8
2014-Oct-01 19:43 349 18.3
2014-Oct-01 19:37 029 18.3
2014-Oct-01 19:13 169 18.9
2014-Oct-01 18:37 123 1 gusting 5 20.6
2014-Oct-01 18:25 142 20.6
2014-Oct-01 18:01 152 2 gusting 5 21.7
2014-Oct-01 17:37 134 2 gusting 7 23.3
2014-Oct-01 17:31 145 1 gusting 7 23.9
2014-Oct-01 17:19 008 24.4
2014-Oct-01 17:13 357 0 gusting 2 24.4
2014-Oct-01 16:44 358 0 gusting 5 25.0
2014-Oct-01 16:25 345 2 gusting 7 25.0
2014-Oct-01 16:13 003 2 gusting 6 25.6
2014-Oct-01 15:49 013 1 gusting 6 25.6
2014-Oct-01 15:43 350 2 gusting 6 25.6
2014-Oct-01 15:31 356 3 gusting 8 25.6
2014-Oct-01 15:25 013 2 gusting 5 25.6
2014-Oct-01 15:14 071 2 gusting 5 25.6
2014-Oct-01 15:07 218 0 gusting 5 25.6
2014-Oct-01 15:01 293 25.0
2014-Oct-01 14:49 037 2 gusting 7 25.6
2014-Oct-01 14:43 186 2 gusting 5 25.6
2014-Oct-01 14:37 290 25.6
2014-Oct-01 14:31 309 0 gusting 5 25.6
2014-Oct-01 14:25 349 2 gusting 9 25.0
2014-Oct-01 14:19 357 2 gusting 10 25.0
2014-Oct-01 14:13 020 4 gusting 6 25.0
2014-Oct-01 14:01 016 0 gusting 5 25.0
2014-Oct-01 13:55 358 2 gusting 6 24.4
2014-Oct-01 13:13 279 1 gusting 3 23.9
2014-Oct-01 13:07 229 23.3
2014-Oct-01 13:01 342 23.3
2014-Oct-01 12:55 015 3 gusting 6 23.9
2014-Oct-01 12:49 011 23.3
2014-Oct-01 12:37 043 23.3
2014-Oct-01 12:31 357 23.3
2014-Oct-01 12:25 006 2 gusting 7 22.8
2014-Oct-01 12:13 341 3 gusting 5 22.2
2014-Oct-01 12:07 314 0 gusting 4 22.2
2014-Oct-01 12:01 306 1 gusting 5 22.2
2014-Oct-01 11:55 337 2 gusting 5 22.2
2014-Oct-01 11:43 023 2 gusting 5 21.7
2014-Oct-01 11:25 353 21.1
2014-Oct-01 11:13 014 0 gusting 2 21.1
2014-Oct-01 11:07 356 20.6
2014-Oct-01 10:55 339 0 gusting 2 20.0
2014-Oct-01 10:43 355 18.9
2014-Oct-01 10:37 338 1 gusting 2 18.9
2014-Oct-01 10:25 347 0 gusting 1 18.3
2014-Oct-01 10:07 001 17.2
2014-Oct-01 09:43 350 16.1
2014-Oct-01 09:31 15.6
2014-Oct-01 09:25 046 15.6
2014-Oct-01 09:13 135 14.4
2014-Oct-01 09:07 270 12.8
2014-Oct-01 09:01 274 12.8
2014-Oct-01 08:49 12.2
2014-Oct-01 08:31 149 11.7
2014-Oct-01 08:25 146 11.1
2014-Oct-01 08:13 163 10.6
2014-Oct-01 08:07 181 0 gusting 2 10.0
2014-Oct-01 08:02 170 0 gusting 2 10.0
2014-Oct-01 07:55 142 9.4
2014-Oct-01 07:39 150 1 gusting 2 8.3
2014-Oct-01 07:27 151 7.8
2014-Oct-01 07:21 153 7.8
2014-Oct-01 06:58 167 7.2
2014-Oct-01 06:51 171 7.2
2014-Oct-01 06:45 167 7.2
2014-Oct-01 06:39 184 6.7
2014-Oct-01 06:33 188 0 gusting 2 6.7
2014-Oct-01 06:27 164 6.7
2014-Oct-01 06:21 351 6.7
2014-Oct-01 06:09 179 7.2
2014-Oct-01 06:03 174 7.2
2014-Oct-01 05:58 176 7.2
2014-Oct-01 05:51 181 0 gusting 2 7.2
2014-Oct-01 05:45 7.2
2014-Oct-01 05:39 7.2
2014-Oct-01 05:34 219 7.2
2014-Oct-01 05:28 190 7.8
2014-Oct-01 05:21 173 7.8
2014-Oct-01 05:15 158 7.8
2014-Oct-01 05:03 177 7.8
2014-Oct-01 04:57 192 7.8
2014-Oct-01 04:51 179 0 gusting 2 7.8
2014-Oct-01 04:39 189 7.8
2014-Oct-01 04:33 190 7.8
2014-Oct-01 04:27 189 7.8
2014-Oct-01 04:10 7.8
2014-Oct-01 04:03 7.8
2014-Oct-01 03:57 001 8.3
2014-Oct-01 03:51 204 8.3
2014-Oct-01 03:39 152 8.3
2014-Oct-01 03:27 353 8.3
2014-Oct-01 03:21 181 8.3
2014-Oct-01 03:10 206 8.9
2014-Oct-01 02:57 8.9
2014-Oct-01 02:45 8.9
2014-Oct-01 02:39 8.9
2014-Oct-01 02:33 200 8.9
2014-Oct-01 02:22 179 9.4
2014-Oct-01 02:15 191 9.4
2014-Oct-01 02:09 174 9.4
2014-Oct-01 01:57 191 9.4
2014-Oct-01 01:45 181 9.4
2014-Oct-01 01:39 191 9.4
2014-Oct-01 01:35 193 9.4
2014-Oct-01 01:27 185 9.4
2014-Oct-01 01:22 188 1 gusting 2 9.4
2014-Oct-01 01:15 206 10.0
2014-Oct-01 01:10 10.0
2014-Oct-01 00:57 185 10.6
2014-Oct-01 00:51 196 1 gusting 4 10.6
2014-Oct-01 00:39 225 10.0
2014-Oct-01 00:27 211 10.0
2014-Oct-01 00:21 343 10.6
2014-Oct-01 00:10 232 10.6
2014-Oct-01 00:03 213 0 gusting 2 11.1
2014-Sep-30 23:57 235 11.1
2014-Sep-30 23:51 202 11.1
2014-Sep-30 23:47 182 11.1
2014-Sep-30 23:45 182 11.1
2014-Sep-30 23:39 190 0 gusting 4 11.1
2014-Sep-30 23:33 192 1 gusting 4 11.1
2014-Sep-30 23:27 184 0 gusting 3 11.7
2014-Sep-30 23:21 205 1 gusting 2 11.7
2014-Sep-30 23:16 218 0 gusting 3 11.7
2014-Sep-30 23:10 218 0 gusting 3 11.7
2014-Sep-30 23:03 197 2 gusting 3 11.7
2014-Sep-30 22:57 192 1 gusting 2 12.2
2014-Sep-30 22:51 191 12.2
2014-Sep-30 22:39 277 12.2
2014-Sep-30 22:33 222 12.8
2014-Sep-30 22:27 208 0 gusting 3 12.8
2014-Sep-30 22:10 213 13.3
2014-Sep-30 22:03 217 13.3
2014-Sep-30 21:57 196 2 gusting 5 13.9
2014-Sep-30 21:51 206 1 gusting 3 13.9
2014-Sep-30 21:41 198 14.4
2014-Sep-30 21:39 198 14.4
2014-Sep-30 21:33 226 15.0
2014-Sep-30 21:27 219 15.0
2014-Sep-30 21:10 213 15.6
2014-Sep-30 21:03 211 16.1
2014-Sep-30 20:57 183 16.1
2014-Sep-30 20:51 248 16.1
2014-Sep-30 20:39 196 16.1
2014-Sep-30 20:33 194 0 gusting 2 16.7
2014-Sep-30 20:21 179 16.7
2014-Sep-30 20:09 181 16.7
2014-Sep-30 20:03 314 17.2
2014-Sep-30 19:57 238 17.2
2014-Sep-30 19:39 007 17.8
2014-Sep-30 19:33 135 17.8
2014-Sep-30 19:27 144 17.8
2014-Sep-30 19:22 125 17.8
2014-Sep-30 19:15 150 17.8
2014-Sep-30 19:10 134 0 gusting 2 18.3
2014-Sep-30 19:03 140 18.3
2014-Sep-30 18:51 141 18.3
2014-Sep-30 18:39 224 18.3
2014-Sep-30 18:33 194 2 gusting 3 18.3
2014-Sep-30 18:27 167 18.9
2014-Sep-30 18:21 200 19.4
2014-Sep-30 18:15 203 2 gusting 3 19.4
2014-Sep-30 18:11 181 1 gusting 2 20.6
2014-Sep-30 18:03 209 21.1
2014-Sep-30 17:57 195 21.1
2014-Sep-30 17:45 316 22.2
2014-Sep-30 17:39 315 22.2
2014-Sep-30 17:27 338 0 gusting 2 22.8
2014-Sep-30 17:21 348 22.8
2014-Sep-30 17:10 357 2 gusting 4 23.3
2014-Sep-30 17:03 001 2 gusting 4 23.3
2014-Sep-30 16:57 355 1 gusting 6 23.3
2014-Sep-30 16:52 356 2 gusting 6 23.3
2014-Sep-30 16:39 346 2 gusting 6 23.3
2014-Sep-30 16:33 344 2 gusting 6 23.3
2014-Sep-30 16:27 355 4 gusting 6 23.3
2014-Sep-30 16:03 359 5 gusting 7 23.9
2014-Sep-30 15:57 355 1 gusting 6 23.9
2014-Sep-30 15:51 008 2 gusting 6 23.9
2014-Sep-30 15:39 008 3 gusting 6 23.3
2014-Sep-30 15:33 356 3 gusting 8 23.3
2014-Sep-30 15:27 357 2 gusting 8 23.3
2014-Sep-30 15:15 004 2 gusting 6 23.9
2014-Sep-30 15:09 359 23.9
2014-Sep-30 15:03 357 3 gusting 5 23.9
2014-Sep-30 14:57 015 4 gusting 6 23.3
2014-Sep-30 14:51 014 2 gusting 6 23.3
2014-Sep-30 14:45 008 2 gusting 7 23.3
2014-Sep-30 14:39 001 5 gusting 7 23.3
2014-Sep-30 14:27 030 5 gusting 7 23.9
2014-Sep-30 14:21 055 2 gusting 5 23.9
2014-Sep-30 14:09 114 2 gusting 3 24.4
2014-Sep-30 14:03 124 23.9
2014-Sep-30 13:57 024 23.9
2014-Sep-30 13:51 324 0 gusting 3 23.3
2014-Sep-30 13:39 199 22.8
2014-Sep-30 13:27 158 21.7
2014-Sep-30 13:10 001 20.6
2014-Sep-30 12:57 312 20.6
2014-Sep-30 12:45 327 20.6
2014-Sep-30 12:39 354 20.6
2014-Sep-30 12:33 006 20.6
2014-Sep-30 12:27 009 20.6
2014-Sep-30 12:21 016 2 gusting 4 20.6
2014-Sep-30 12:10 358 20.6
2014-Sep-30 12:03 335 20.6
2014-Sep-30 11:51 230 0 gusting 2 20.6
2014-Sep-30 11:45 332 20.0
2014-Sep-30 11:33 040 1 gusting 5 19.4
2014-Sep-30 11:27 005 2 gusting 5 19.4
2014-Sep-30 11:15 329 1 gusting 4 18.9
2014-Sep-30 11:09 342 1 gusting 4 18.9
2014-Sep-30 11:03 350 0 gusting 2 18.3
2014-Sep-30 10:57 351 0 gusting 3 18.3
2014-Sep-30 10:45 011 1 gusting 4 17.8
2014-Sep-30 10:39 340 1 gusting 2 17.2
2014-Sep-30 10:33 327 17.2
2014-Sep-30 10:27 334 16.7
2014-Sep-30 10:15 355 16.1
2014-Sep-30 10:03 003 15.6
2014-Sep-30 09:57 022 15.0
2014-Sep-30 09:39 318 13.3
2014-Sep-30 09:33 001 12.8
2014-Sep-30 09:27 358 12.2
2014-Sep-30 09:21 308 11.7
2014-Sep-30 09:10 001 10.6
2014-Sep-30 08:57 349 10.0
2014-Sep-30 08:39 090 9.4
2014-Sep-30 08:34 090 8.9
2014-Sep-30 08:30 090 8.3
2014-Sep-30 08:15 045 7.2
2014-Sep-30 08:03 6.7
2014-Sep-30 07:57 046 6.7
2014-Sep-30 07:51 045 6.7
2014-Sep-30 07:45 045 6.7
2014-Sep-30 07:39 001 6.7
2014-Sep-30 07:22 045 6.1
2014-Sep-30 07:03 6.1
2014-Sep-30 06:58 5.6
2014-Sep-30 06:51 5.6
2014-Sep-30 06:39 314 5.6
2014-Sep-30 06:33 314 5.6
2014-Sep-30 06:22 128 6.1
2014-Sep-30 06:09 6.1